Weather in Rodnikovy

Russia / Republic of Dagestan     42°09′00″N   47°56′57″E
temp.,
°C
wind,
m/s
gust,
m/s
humid.,
%
clouds,
%
prec.,
mm/h
press.,
hPa
HPBL,
m
23 june, wed
wed2300:00+22sw11401 0.0 101012
03:00+22wnw114160 0.0 101111
06:00+25nw12374 0.0 1012107
09:00+31ene44261 0.0 1012810
12:00+31e55330 0.0 1012796
15:00+32e56310 0.0 1010615
18:00+28ene33370 0.0 1011287
21:00+22w11550 0.0 101211
24 june, thu
thu2400:00+21nnw11600 0.0 101114
03:00+21w11540 0.0 101114
06:00+25nne11410 0.0 1011119
09:00+31ne31300 0.0 1011689
12:00+33ene54280 0.0 1011941
15:00+34e68230 0.0 1010825
18:00+30e35267 0.0 1010335
21:00+24nnw014569 0.0 101119
25 june, fri
fri2500:00+22nw11534 0.0 101118
03:00+22w115275 0.0 101017
06:00+26ne014069 0.0 101090
09:00+33ene322699 0.0 1009637
12:00+34ne64266 0.0 1009820
15:00+33ne32251 0.0 1008758
18:00+30ne33330 0.0 1007237
21:00+24w12551 0.0 100843
26 june, sat
sat2600:00+24nw11542 0.0 100728
03:00+24wsw114860 0.0 100813
06:00+28sse233584 0.0 1008110
09:00+33e543298 0.0 1008861
12:00+32ne4240100 0.0 1008805
15:00+30ne3346100 0.0 1007508
18:00+31nne114482 0.0 1007337
21:00+26ssw115757 0.0 100713
27 june, sun
sun2700:00+28sw224960 0.0 100716
03:00+25wsw125687 0.0 100914
06:00+29se114515 0.0 1010141
09:00+33e434099 0.0 10101047
12:00+33ene544118 0.0 10101137
15:00+32ene4343100 0.0 1010971
18:00+30nne2347100 0.0 1010400
21:00+27sw225640 0.0 101114